This is the latest recevied weather packets stored in our database for station/object 9M4GHZ-13. If no packets are shown the sender has not sent any weather packets the latest 10 day(s).
| Time | Temp. | Humidity | Pressure | Rain* | Wind** | Luminosity | Snow |
|---|---|---|---|---|---|---|---|
| 1778140804 | 31.67° C | 70% | 1004.5 hPa | - | - | - | - |
| 1778140205 | 31.67° C | 72% | 1004.5 hPa | - | - | - | - |
| 1778139607 | 31.67° C | 70% | 1004.4 hPa | - | - | - | - |
| 1778139005 | 31.67° C | 71% | 1004.8 hPa | - | - | - | - |
| 1778138405 | 31.67° C | 71% | 1004.9 hPa | - | - | - | - |
| 1778137805 | 31.11° C | 72% | 1004.9 hPa | - | - | - | - |
| 1778137204 | 30.56° C | 74% | 1005 hPa | - | - | - | - |
| 1778136604 | 31.11° C | 76% | 1005.3 hPa | - | - | - | - |
| 1778136005 | 30° C | 82% | 1005.4 hPa | - | - | - | - |
| 1778135405 | 28.89° C | 85% | 1005.5 hPa | - | - | - | - |
| 1778134806 | 28.33° C | 89% | 1005.9 hPa | - | - | - | - |
| 1778134205 | 27.22° C | 91% | 1006.2 hPa | - | - | - | - |
| 1778133606 | 27.22° C | 92% | 1006.2 hPa | - | - | - | - |
| 1778133006 | 27.22° C | 91% | 1006.3 hPa | - | - | - | - |
| 1778132406 | 28.89° C | 86% | 1006.6 hPa | - | - | - | - |
| 1778131806 | 30.56° C | 78% | 1006.6 hPa | - | - | - | - |
| 1778131205 | 30.56° C | 74% | 1006.8 hPa | - | - | - | - |
| 1778130605 | 31.67° C | 72% | 1007 hPa | - | - | - | - |
| 1778130005 | 32.22° C | 67% | 1007.3 hPa | - | - | - | - |
| 1778129405 | 32.22° C | 68% | 1007.2 hPa | - | - | - | - |
| 1778128805 | 31.67° C | 69% | 1007.5 hPa | - | - | - | - |
| 1778128206 | 32.22° C | 69% | 1007.7 hPa | - | - | - | - |
| 1778127605 | 31.11° C | 70% | 1007.9 hPa | - | - | - | - |
| 1778127005 | 30.56° C | 71% | 1008.3 hPa | - | - | - | - |
| 1778126405 | 30.56° C | 72% | 1008.4 hPa | - | - | - | - |
* Rain since midnight (hover to see other rain measurements)
** Current wind speed in m/s (hover to see current wind gust speed)